Time+03,TemperatureF,Dew PointF,Humidity,Sea Level PressureIn,VisibilityMPH,Wind Direction,Wind SpeedMPH,Gust SpeedMPH,PrecipitationIn,Events,Conditions,WindDirDegrees,DateUTC
12:00 AM,68.0,53.6,60,30.04,-9999.0,NW,5.8,-,N/A,,Clear,310,2013-02-20 21:00:00
1:00 AM,66.2,55.4,68,30.04,-9999.0,NW,4.6,-,N/A,,Clear,320,2013-02-20 22:00:00
2:00 AM,66.2,53.6,64,30.01,-9999.0,NW,9.2,-,N/A,,Clear,310,2013-02-20 23:00:00
3:00 AM,66,53,53,30.03,7,NW,9.2,,,,,320,2013-02-21 00:00:00
3:00 AM,66.2,53.6,64,30.01,-9999.0,NW,9.2,-,N/A,,Clear,320,2013-02-21 00:00:00
3:30 AM,66.2,53.6,64,30.04,-9999.0,NNW,11.5,-,N/A,,Clear,330,2013-02-21 00:30:00
4:00 AM,66.2,51.8,60,30.04,-9999.0,NNW,10.4,-,N/A,,Clear,330,2013-02-21 01:00:00
4:30 AM,66.2,51.8,60,30.04,-9999.0,NNW,10.4,-,N/A,,Clear,330,2013-02-21 01:30:00
5:00 AM,66.2,51.8,60,30.04,-9999.0,NNW,11.5,-,N/A,,Clear,330,2013-02-21 02:00:00
5:30 AM,66.2,51.8,60,30.04,-9999.0,NNW,11.5,-,N/A,,Clear,340,2013-02-21 02:30:00
6:00 AM,64.4,51.8,64,30.06,-9999.0,NNW,10.4,-,N/A,,Clear,340,2013-02-21 03:00:00
7:00 AM,66.2,51.8,60,30.06,-9999.0,NNW,12.7,-,N/A,,Clear,340,2013-02-21 04:00:00
7:30 AM,68.0,51.8,56,30.06,-9999.0,NNW,16.1,-,N/A,,Clear,340,2013-02-21 04:30:00
8:00 AM,68.0,51.8,56,30.09,-9999.0,NNW,15.0,-,N/A,,Clear,340,2013-02-21 05:00:00
8:30 AM,69.8,51.8,53,30.09,-9999.0,NNW,17.3,-,N/A,,Clear,340,2013-02-21 05:30:00
9:00 AM,71,50,37,30.11,7,NNW,16.1,,,,,340,2013-02-21 06:00:00
9:00 AM,71.6,50.0,46,30.09,-9999.0,NNW,16.1,-,N/A,,Clear,340,2013-02-21 06:00:00
9:30 AM,73.4,46.4,38,30.09,-9999.0,NNW,18.4,-,N/A,,Clear,340,2013-02-21 06:30:00
10:00 AM,75.2,44.6,34,30.09,-9999.0,NNW,16.1,-,N/A,,Clear,340,2013-02-21 07:00:00
10:30 AM,75.2,46.4,36,30.09,-9999.0,North,18.4,-,N/A,,Clear,350,2013-02-21 07:30:00
11:00 AM,77.0,41.0,28,30.09,-9999.0,North,18.4,-,N/A,,Clear,350,2013-02-21 08:00:00
11:30 AM,78.8,37.4,23,30.06,-9999.0,North,18.4,-,N/A,,Clear,350,2013-02-21 08:30:00
12:00 PM,78.8,37.4,23,30.06,-9999.0,North,18.4,-,N/A,,Clear,350,2013-02-21 09:00:00
12:30 PM,78.8,33.8,20,30.04,-9999.0,North,19.6,-,N/A,,Clear,360,2013-02-21 09:30:00
1:00 PM,78.8,37.4,23,30.04,-9999.0,North,18.4,-,N/A,,Clear,360,2013-02-21 10:00:00
1:30 PM,78.8,39.2,24,30.04,-9999.0,North,17.3,-,N/A,,Clear,360,2013-02-21 10:30:00
2:00 PM,78.8,39.2,24,30.01,-9999.0,North,18.4,-,N/A,,Clear,360,2013-02-21 11:00:00
2:30 PM,78.8,33.8,20,30.01,-9999.0,North,20.7,-,N/A,,Clear,360,2013-02-21 11:30:00
3:00 PM,80,35,11,30.02,9,North,19.6,,,,,350,2013-02-21 12:00:00
3:00 PM,78.8,35.6,21,30.01,-9999.0,North,19.6,-,N/A,,Clear,350,2013-02-21 12:00:00
3:30 PM,78.8,37.4,23,30.01,-9999.0,North,18.4,-,N/A,,Clear,350,2013-02-21 12:30:00
4:00 PM,78.8,39.2,24,30.01,-9999.0,NNW,18.4,-,N/A,,Clear,340,2013-02-21 13:00:00
4:30 PM,77.0,37.4,24,30.01,-9999.0,NNW,18.4,-,N/A,,Clear,340,2013-02-21 13:30:00
5:00 PM,75.2,37.4,25,30.04,-9999.0,NNW,15.0,-,N/A,,Clear,330,2013-02-21 14:00:00
5:30 PM,75.2,37.4,25,30.04,-9999.0,NNW,12.7,-,N/A,,Clear,330,2013-02-21 14:30:00
6:00 PM,73.4,37.4,27,30.04,-9999.0,NNW,12.7,-,N/A,,Clear,330,2013-02-21 15:00:00
6:30 PM,73.4,39.2,29,30.04,-9999.0,NW,11.5,-,N/A,,Clear,320,2013-02-21 15:30:00
7:00 PM,71.6,41.0,33,30.06,-9999.0,NW,12.7,-,N/A,,Clear,310,2013-02-21 16:00:00
8:00 PM,69.8,44.6,40,30.06,-9999.0,NW,11.5,-,N/A,,Clear,310,2013-02-21 17:00:00
8:30 PM,69.8,44.6,40,30.09,-9999.0,NW,10.4,-,N/A,,Clear,310,2013-02-21 17:30:00
9:00 PM,70,43,27,30.10,7,NW,10.4,,,,,310,2013-02-21 18:00:00
9:00 PM,69.8,42.8,38,30.09,-9999.0,NW,10.4,-,N/A,,Clear,310,2013-02-21 18:00:00
9:30 PM,69.8,41.0,35,30.09,-9999.0,NW,10.4,-,N/A,,Clear,310,2013-02-21 18:30:00
10:00 PM,69.8,41.0,35,30.06,-9999.0,NW,10.4,-,N/A,,Clear,310,2013-02-21 19:00:00
10:30 PM,69.8,41.0,35,30.06,-9999.0,NW,9.2,-,N/A,,Clear,310,2013-02-21 19:30:00
11:00 PM,69.8,39.2,33,30.06,-9999.0,NW,8.1,-,N/A,,Clear,310,2013-02-21 20:00:00
11:30 PM,69.8,39.2,33,30.06,-9999.0,NW,8.1,-,N/A,,Clear,310,2013-02-21 20:30:00